Find Starlink 11209

NORAD ID: 61200 Int'l Des: 2024-171 Owner: SPXS Country: US Constellation: starlink operational
LEOCIRCULAR

リアルタイム位置

3D地球を読み込み中...

Starlink 11209について

説明を読み込み中...

次回通過

Passes for default location (London). Set your location on the main map for personalized predictions.

高度履歴

Loading altitude history...

軌道要素

1 61200U 24171A 26124.63909205 -.00000129 00000-0 37911-5 0 9992
2 61200 53.1597 260.6451 0000582 77.5880 282.5203 15.69704199 94090
Epoch: May 4, 2026 • Age: 21 hours

現在のステータス

高度 371.3 km
速度 7.69 km/s
衛星直下点 -35.48°S, 172.8°E
打ち上げ日 Sep 20, 2024
運用期間 1.6 years
タイプ internet

技術仕様

分類 Payload
質量 960.00 kg
乾燥質量 910.00 kg
総質量 960.00 kg
長さ 0.30 m
直径 4.10 m
スパン 29.00 m
形状 Box + pan
製造者 SPXS
バスタイプ Starlink V2MD
フェーズステータス In Orbit
所有者/国 SPXS/US

Most Searched